Regional Weather Roundup
Issued by NWS

Home | Current Version | Previous Version | Text Only | Print | Product List | Glossary Off
Versions: 1 2 3 4 5 6 7 8 9 10 11 12 13 14 15 16 17 18 19 20 21 22 23 24 25 26 27 28 29 30 31 32 33 34 35 36 37 38 39 40 41 42 43 44 45 46 47 48 49 50

000
ASUS43 KMKX 271911
RWRWI

WISCONSIN REGIONAL WEATHER ROUNDUP
NATIONAL WEATHER SERVICE MILWAUKEE/SULLIVAN WI
200 PM CDT TUE JUN 27 2017

NOTE: "FAIR" INDICATES FEW OR NO CLOUDS BELOW 12,000 FEET WITH NO
SIGNIFICANT WEATHER AND/OR OBSTRUCTIONS TO VISIBILITY.

WIZ001-002-006>008-014>016-023>028-272000-
NORTHWEST WISCONSIN

CITY           SKY/WX    TMP DP  RH WIND       PRES   REMARKS
SUPERIOR ARPT  NOT AVBL
ASHLAND        MOSUNNY   72  47  40 SW10      29.96F
HAYWARD        SUNNY     71  43  36 S8G20     29.99F
SIREN          SUNNY     72  40  31 SW13      29.98F
CUMBERLAND     SUNNY     70  43  37 S9        30.00F
RICE LAKE      SUNNY     72  42  33 S12       30.01F
CHETEK         SUNNY     72  45  37 W8        30.01F
LADYSMITH      SUNNY     73  44  36 SW12      30.02F
EAU CLAIRE     SUNNY     74  43  32 SW13      30.01F
MENOMONIE      SUNNY     74  45  35 S10       30.01F
NEW RICHMOND   SUNNY     73  42  32 SW15      30.00F
OSCEOLA        SUNNY     74  43  32 S13       30.01F
$$

WIZ003>005-009-010-017-018-272000-
NORTH CENTRAL WISCONSIN

CITY           SKY/WX    TMP DP  RH WIND       PRES   REMARKS
MANITOWISH WTR PTSUNNY   68  47  46 W3        29.99F
ARBOR VITAE    MOSUNNY   71  50  47 W7        30.00S
WOODRUFF       MOSUNNY   71  50  47 W7        30.00S
RHINELANDER    MOSUNNY   70  48  45 VRB7      30.02F
EAGLE RIVER    MOSUNNY   70  45  40 W10       30.00F
LAND O LAKES   MOSUNNY   71  42  34 W5        30.01F
PHILLIPS       SUNNY     70  47  44 W5        30.00F
TOMAHAWK       NOT AVBL
MEDFORD        MOSUNNY   68  46  44 W9        30.03F
MERRILL        MOSUNNY   71  46  40 W7        30.03F
$$

WIZ029-030-035-036-043>047-272000-
CENTRAL WISCONSIN

CITY           SKY/WX    TMP DP  RH WIND       PRES   REMARKS
WAUSAU         SUNNY     71  44  37 W12       30.02F
MOSINEE        PTSUNNY   70  46  43 NW8       30.05F
MARSHFIELD     PTSUNNY   71  46  40 SW7       30.03F
STEVENS POINT  MOSUNNY   71  44  38 W7        30.05S
WAUPACA        MOSUNNY   75  44  33 NW7G17    30.04S
WAUTOMA        MOSUNNY   72  45  37 NW10      30.05F
WISC RAPIDS    MOSUNNY   74  47  38 W12       30.05F
CAMP DOUGLAS   PTSUNNY   72  48  43 SW7       30.05F
$$

WIZ011>013-019>022-031-037>040-048>050-272000-
NORTHEAST WISCONSIN

CITY           SKY/WX    TMP DP  RH WIND       PRES   REMARKS
ANTIGO         MOSUNNY   69  49  47 W9G17     30.03S
SHAWANO        PTSUNNY   76  47  35 SW12      30.01S
OCONTO         PTSUNNY   73  49  42 W3        29.99F
STURGEON BAY     N/A     71  52  50 W9        30.02F
GREEN BAY      PTSUNNY   73  52  47 W9        30.01F
MANITOWOC      PTSUNNY   72  48  42 SW7       30.03F
APPLETON       PTSUNNY   72  43  35 W16       30.03S
CLINTONVILLE   PTSUNNY   73  43  33 W7        30.02F
OSHKOSH        MOSUNNY   72  48  42 W9        30.04S
$$

WIZ032>034-041-042-053>061-272000-
SOUTHWEST WISCONSIN

CITY           SKY/WX    TMP DP  RH WIND       PRES   REMARKS
LA CROSSE      SUNNY     78  45  30 VRB7      30.03F
SPARTA         MOSUNNY   73  45  37 SW5       30.05F
VIROQUA        SUNNY     72  45  38 W7G16     30.07F
BOSCOBEL       SUNNY     76  45  33 VRB7      30.07F
PRAIRIE DU CHI SUNNY     74  42  32 S5        30.06F
PLATTEVILLE    SUNNY     74  44  35 SW9       30.09F
$$

WIZ056-057-062-063-064-067-068-272000-
SOUTH CENTRAL WISCONSIN

CITY           SKY/WX    TMP DP  RH WIND       PRES   REMARKS
REEDSBURG      MOSUNNY   72  48  42 SW7       30.06S
BARABOO/DELLS  MOSUNNY   71  44  38 W6        30.07S
LONE ROCK      MOSUNNY   74  44  34 SW10      30.07F
MINERAL POINT  MOSUNNY   73  41  31 SW5       30.09S
MADISON        PTSUNNY   72  46  39 S6        30.07F
MIDDLETON      MOSUNNY   74  47  38 W7        30.08F
WATERTOWN      NOT AVBL
MONROE         MOSUNNY   72  41  33 S5        30.08F
JANESVILLE     MOSUNNY   73  43  33 NW9       30.08F
$$

WIZ051-052-058>065-066-070>072-272000-
SOUTHEAST WISCONSIN

CITY           SKY/WX    TMP DP  RH WIND       PRES   REMARKS
MILWAUKEE      PTSUNNY   74  47  38 NW10      30.07F
WAUKESHA       PTSUNNY   70  46  43 W9        30.09F
MILWAUKEE/TIMM PTSUNNY   72  41  33 W13       30.08F
RACINE         PTSUNNY   71  46  40 VRB6      30.09F
KENOSHA        PTSUNNY   71  47  42 W7        30.08F
FOND DU LAC    MOSUNNY   73  45  36 W15       30.05F
SHEBOYGAN      MOSUNNY   73  50  44 W9        30.04F
WEST BEND      PTSUNNY   70  43  37 W8        30.06S
JUNEAU         MOSUNNY   71  47  43 SW5       30.08F
$$

LSZ147-162-272000-
LAKE SUPERIOR

STATION/POSITION TIME  TEMP    WIND        PRES    WAVE
                       AIR SEA DIR/SP/G            HT/PER
                 (UTC) (F)     (DEG/KT/KT) (MB)    (FT/S)
W MID LAKE BUOY  1850   46 39  210/ 10/ 12 1014.2F   1
DEVILS ISLAND    1900   65     240/ 13/ 14 1013.6F
SAXON HARBOR     1830   72     280/  6/ 14 1014.2F
$$

LMZ867-665-643>646-272000-
LAKE MICHIGAN

STATION/POSITION TIME  TEMP    WIND        PRES    WAVE
                       AIR SEA DIR/SP/G            HT/PER
                 (UTC) (F)     (DEG/KT/KT) (MB)    (FT/S)
CHAMBERS ISLAND  1840   67     170/  7/ 12 1015.9S
S GREEN BAY BUOY 1900   68     190/  8/ 10 1015.8
N MID LAKE BUOY  1850   58 58  200/  8/  8 1017.1F   1
NORTHPORT PIER   1840   64     140/ 10/ 13 1015.9F
KEWAUNEE LAKESHO 1842   59     180/  7/ 12 1016.4F
SHEBOYGAN LAKESH 1900   63     150/ 14/ 16 1017.2F
PORT WASHINGTON  1840   73     300/  8/ 13 1018.6S
ATWATER BUOY     1809   64 56  150/  4/  8 1018.5F
MILWAUKEE LAKESH 1850   67     200/  2/  5   N/A
S MID LAKE BUOY  1750   62 62  230/  8/ 10 1019.6F   1/ 3
KENOSHA   LAKESH 1900   65     150/  8/ 11 1018.3
$$

TC  - TEMPERATURE IN CELSIUS
VSB - VISIBILITY IN STATUTE MILES
WCI - WIND CHILL INDEX
HX  - HEAT INDEX





USA.gov is the U.S. government's official web portal to all federal, state and local government web resources and services.